SCP
0 -0 -0 -0 -0 -0 -0 -0 -0 -0 -0 -0 -0 -0 -0 -0 -0 -0 -0 -0 -0 -0 -0 -0 -0 -0 0
0 -0 -0 -0 -0 -0 -0 -0 -0 -0 -0 -0 -0 -0 -0 -0 -0 -0 -0 -0 -0 -0 -0 -0 -0 -0 0
0 0 -0 -0 -0 -0 -0 -0 -0 0 0 0 0 -0 -0 -0 -0 -0 -0 -0 -0 -0 -0 -0 0 0 0
0 0 0 0 0 0 0 0 0 0 0 0 0 -0 -0 -0 -0 -0 -0 0 0 0 0 0 0 0 0
0 0 0 0 0 0 0 0 0 0 0 0 0 0 0 0 0 0 0 0 0 0 0 0 0 0 0
0 0 0 0 0 0 0 0 0 0 0 0 0 0 0 0 0 0 0 0 0 0 0 0 0 0 0
0 0 0 0 0 0 0 0 0 0 0 0 0 0 0 0 0 0 0 0 0 0 0 0 0 0 0
-0 0 0 0 0 0 0 0 0 0 0 0 0 0 0 0 0 0 0 0 0 0 0 0 0 0 0
-0 0 0 0 0 0 0 0 0 0 0 0 0 0 0 0 0 0 0 0 0 0 0 0 0 0 0
0 0 0 0 0 0 0 0 0 0 0 0 0 0 0 0 0 0 0 0 0 0 0 0 0 0 0
0 0 0 0 0 0 0 0 0 0 0 0 0 0 0 0 0 0 0 0 0 0 0 0 0 0 0
0 0 0 0 0 0 0 0 0 0 0 0 0 0 0 0 0 0 0 0 0 0 0 0 0 0 0
0 0 0 0 0 0 0 0 0 0 0 0 0 0 0 0 0 0 0 0 0 0 0 0 0 0 0
0 0 0 0 0 0 0 0 0 0 0 0 0 0 0 0 0 0 0 0 0 0 0 0 0 0 0
0 0 0 0 0 0 0 0 0 0 0 0 0 0 0 0 0 0 0 0 0 0 0 0 0 0 0
0 0 0 0 0 0 0 0 0 0 0 0 0 0 0 0 0 0 0 0 0 0 0 0 0 0 0
Wind_Speed_500mb
23 20 17 14 12 11 9 7 8 10 12 14 15 14 17 20 19 19 21 22 24 22 19 16 14 13 9
27 23 19 16 13 11 8 6 6 9 12 14 14 15 16 17 17 18 19 19 17 14 11 6 5 5 7
30 27 24 21 17 14 10 8 7 9 12 14 15 16 15 16 17 18 18 16 13 9 6 5 6 5 9
34 31 29 26 21 16 12 9 9 10 11 13 15 13 13 14 15 14 13 12 10 9 7 6 5 3 7
39 36 34 30 26 22 17 13 11 11 11 12 10 10 11 12 10 10 8 8 8 8 5 4 3 4 5
41 42 39 36 33 30 23 18 15 13 11 10 8 9 10 8 7 5 4 4 4 3 2 3 6 0 15
44 47 43 41 39 35 29 27 22 20 16 9 8 10 11 11 9 6 4 3 2 3 4 7 7 4 12
45 49 48 44 42 41 38 33 30 28 26 14 15 15 18 18 18 15 11 9 9 9 10 11 11 9 7
47 50 46 47 47 46 45 42 39 37 37 27 24 26 20 24 24 22 20 19 16 18 18 18 19 17 13
59 53 54 50 49 53 48 49 48 46 43 38 39 34 37 35 31 30 28 27 28 27 27 26 26 25 21
67 61 59 58 54 51 49 44 49 52 51 50 45 45 42 41 41 36 36 33 33 33 32 33 33 34 32
74 72 68 69 69 62 57 52 50 55 58 59 55 51 50 49 47 43 41 41 39 38 40 41 40 40 41
80 83 83 78 75 72 66 59 57 56 63 64 63 59 59 58 52 50 50 50 50 48 44 44 46 47 50
80 82 85 80 80 75 70 67 64 66 63 66 67 67 64 60 61 62 62 62 58 56 54 50 39 50 58
76 81 87 83 82 80 78 74 65 66 65 62 66 72 73 71 71 70 70 64 71 63 61 53 26 36 39
77 83 86 87 86 87 81 75 66 59 67 64 69 68 77 81 81 77 68 76 73 74 67 69 74 64 39
Wind_Direction_500mb
178 174 167 162 152 139 129 111 100 101 105 109 113 111 106 107 103 89 92 92 98 105 105 104 98 96 61
185 183 179 176 172 163 152 132 121 121 118 118 118 111 104 105 99 96 93 95 98 101 106 90 40 18 82
194 191 189 188 187 184 179 162 151 141 133 131 124 119 116 108 100 97 92 84 76 77 83 58 19 47 97
204 202 200 200 199 197 188 182 172 161 151 148 141 129 121 108 102 97 91 84 73 64 71 61 26 106 121
215 212 211 208 207 202 197 185 187 179 169 163 157 148 137 121 107 100 84 69 69 65 67 42 56 149 141
225 224 221 217 213 210 206 199 187 175 170 174 170 172 168 162 147 126 92 66 73 91 115 150 157 216 147
226 229 232 226 221 219 215 207 202 202 187 194 200 201 200 201 201 220 222 235 233 229 216 204 211 204 170
223 228 232 238 234 225 222 219 216 217 216 207 238 231 225 225 225 226 235 234 240 237 231 229 239 251 245
233 229 228 230 234 235 231 226 225 224 225 230 238 242 241 248 245 244 242 241 235 239 230 231 235 240 251
235 236 233 233 234 232 236 234 232 230 231 232 233 239 240 234 242 246 246 246 237 229 227 231 232 237 237
237 239 238 237 240 240 238 238 237 237 235 237 241 242 242 243 245 247 250 248 243 240 236 231 235 228 234
237 238 239 238 238 241 242 243 242 242 240 240 242 244 245 245 246 253 250 248 247 242 243 236 234 237 241
235 235 237 239 241 242 240 246 245 249 242 243 244 246 247 247 249 250 250 252 249 251 239 242 241 239 242
239 239 240 242 245 247 248 244 242 246 250 249 241 246 249 252 249 249 250 248 246 241 239 243 240 249 249
239 239 240 239 245 245 247 248 250 246 246 257 255 248 246 245 247 249 250 257 250 248 244 238 226 235 250
237 238 239 240 241 246 251 251 250 258 256 254 256 256 257 246 248 247 251 253 252 250 245 242 244 249 250
Wind_Speed_850mb
23 20 17 14 12 11 9 7 8 10 12 14 15 14 17 20 19 19 21 22 24 22 19 16 14 13 9
27 23 19 16 13 11 8 6 6 9 12 14 14 15 16 17 17 18 19 19 17 14 11 6 5 5 7
30 27 24 21 17 14 10 8 7 9 12 14 15 16 15 16 17 18 18 16 13 9 6 5 6 5 9
34 31 29 26 21 16 12 9 9 10 11 13 15 13 13 14 15 14 13 12 10 9 7 6 5 3 7
39 36 34 30 26 22 17 13 11 11 11 12 10 10 11 12 10 10 8 8 8 8 5 4 3 4 5
41 42 39 36 33 30 23 18 15 13 11 10 8 9 10 8 7 5 4 4 4 3 2 3 6 0 15
44 47 43 41 39 35 29 27 22 20 16 9 8 10 11 11 9 6 4 3 2 3 4 7 7 4 12
45 49 48 44 42 41 38 33 30 28 26 14 15 15 18 18 18 15 11 9 9 9 10 11 11 9 7
47 50 46 47 47 46 45 42 39 37 37 27 24 26 20 24 24 22 20 19 16 18 18 18 19 17 13
59 53 54 50 49 53 48 49 48 46 43 38 39 34 37 35 31 30 28 27 28 27 27 26 26 25 21
67 61 59 58 54 51 49 44 49 52 51 50 45 45 42 41 41 36 36 33 33 33 32 33 33 34 32
74 72 68 69 69 62 57 52 50 55 58 59 55 51 50 49 47 43 41 41 39 38 40 41 40 40 41
80 83 83 78 75 72 66 59 57 56 63 64 63 59 59 58 52 50 50 50 50 48 44 44 46 47 50
80 82 85 80 80 75 70 67 64 66 63 66 67 67 64 60 61 62 62 62 58 56 54 50 39 50 58
76 81 87 83 82 80 78 74 65 66 65 62 66 72 73 71 71 70 70 64 71 63 61 53 26 36 39
77 83 86 87 86 87 81 75 66 59 67 64 69 68 77 81 81 77 68 76 73 74 67 69 74 64 39
Wind_Direction_850mb
178 174 167 162 152 139 129 111 100 101 105 109 113 111 106 107 103 89 92 92 98 105 105 104 98 96 61
185 183 179 176 172 163 152 132 121 121 118 118 118 111 104 105 99 96 93 95 98 101 106 90 40 18 82
194 191 189 188 187 184 179 162 151 141 133 131 124 119 116 108 100 97 92 84 76 77 83 58 19 47 97
204 202 200 200 199 197 188 182 172 161 151 148 141 129 121 108 102 97 91 84 73 64 71 61 26 106 121
215 212 211 208 207 202 197 185 187 179 169 163 157 148 137 121 107 100 84 69 69 65 67 42 56 149 141
225 224 221 217 213 210 206 199 187 175 170 174 170 172 168 162 147 126 92 66 73 91 115 150 157 216 147
226 229 232 226 221 219 215 207 202 202 187 194 200 201 200 201 201 220 222 235 233 229 216 204 211 204 170
223 228 232 238 234 225 222 219 216 217 216 207 238 231 225 225 225 226 235 234 240 237 231 229 239 251 245
233 229 228 230 234 235 231 226 225 224 225 230 238 242 241 248 245 244 242 241 235 239 230 231 235 240 251
235 236 233 233 234 232 236 234 232 230 231 232 233 239 240 234 242 246 246 246 237 229 227 231 232 237 237
237 239 238 237 240 240 238 238 237 237 235 237 241 242 242 243 245 247 250 248 243 240 236 231 235 228 234
237 238 239 238 238 241 242 243 242 242 240 240 242 244 245 245 246 253 250 248 247 242 243 236 234 237 241
235 235 237 239 241 242 240 246 245 249 242 243 244 246 247 247 249 250 250 252 249 251 239 242 241 239 242
239 239 240 242 245 247 248 244 242 246 250 249 241 246 249 252 249 249 250 248 246 241 239 243 240 249 249
239 239 240 239 245 245 247 248 250 246 246 257 255 248 246 245 247 249 250 257 250 248 244 238 226 235 250
237 238 239 240 241 246 251 251 250 258 256 254 256 256 257 246 248 247 251 253 252 250 245 242 244 249 250